• Em Portugal
  • Lista de países
  • Para 7 dias
  • Temperatura da água
  • Mapas de satélite
  • Mapa do tempo
  • Widgets de tempo
  • user-avatar
    Iniciar Sessão

    Previsão horária em Canillo

    Hoje, 24 Fevereiro, Sábado

    Tempo Temperatura Precipitação Vento Pressão Humidade
    00:00 -9°C° 0 mm 1 m/s 607 mmHg 75%
    01:00 -9°C° 0 mm 1 m/s 607 mmHg 74%
    02:00 -9°C° 0 mm 1 m/s 607 mmHg 73%
    03:00 -9°C° 0 mm 1 m/s 607 mmHg 72%
    04:00 -9°C° 0 mm 1 m/s 607 mmHg 71%
    05:00 -9°C° 0 mm 1 m/s 607 mmHg 69%
    06:00 -9°C° 0 mm 1 m/s 607 mmHg 67%
    07:00 -7°C° 0 mm 1 m/s 608 mmHg 61%
    08:00 -5°C° 0 mm 0 m/s 609 mmHg 55%
    09:00 -3°C° 0 mm 0 m/s 610 mmHg 49%
    10:00 -1°C° 0 mm 0 m/s 610 mmHg 48%
    11:00 +1°C° 0 mm 1 m/s 611 mmHg 47%
    12:00 +2°C° 0 mm 1 m/s 611 mmHg 46%
    13:00 +2°C° 0 mm 1 m/s 611 mmHg 48%
    14:00 +1°C° 0 mm 1 m/s 611 mmHg 51%
    15:00 +1°C° 0 mm 1 m/s 611 mmHg 53%
    16:00 0°C° 0,1 mm 1 m/s 610 mmHg 61%
    17:00 -2°C° 0,1 mm 1 m/s 610 mmHg 69%
    18:00 -5°C° 0,1 mm 0 m/s 609 mmHg 77%
    19:00 -4°C° 0 mm 1 m/s 609 mmHg 78%
    20:00 -4°C° 0 mm 1 m/s 610 mmHg 80%
    21:00 -6°C° 0 mm 1 m/s 610 mmHg 81%
    22:00 -6°C° 0 mm 1 m/s 610 mmHg 80%
    23:00 -6°C° 0 mm 1 m/s 610 mmHg 79%

    Amanhã, 25 Fevereiro, Domingo

    Tempo Temperatura Precipitação Vento Pressão Humidade
    00:00 -7°C° 0 mm 1 m/s 610 mmHg 78%
    01:00 -7°C° 0 mm 1 m/s 610 mmHg 76%
    02:00 -8°C° 0 mm 2 m/s 610 mmHg 73%
    03:00 -8°C° 0 mm 2 m/s 609 mmHg 71%
    04:00 -8°C° 0 mm 2 m/s 610 mmHg 70%
    05:00 -8°C° 0 mm 2 m/s 610 mmHg 69%
    06:00 -7°C° 0 mm 2 m/s 610 mmHg 68%
    07:00 -3°C° 0 mm 1 m/s 611 mmHg 64%
    08:00 -1°C° 0 mm 1 m/s 612 mmHg 61%
    09:00 +1°C° 0 mm 1 m/s 612 mmHg 57%
    10:00 +2°C° 0 mm 1 m/s 613 mmHg 57%
    11:00 +3°C° 0 mm 1 m/s 613 mmHg 56%
    12:00 +3°C° 0 mm 2 m/s 614 mmHg 56%
    13:00 +3°C° 0 mm 2 m/s 613 mmHg 58%
    14:00 +3°C° 0 mm 2 m/s 613 mmHg 59%
    15:00 +3°C° 0 mm 2 m/s 612 mmHg 61%
    16:00 +1°C° 0 mm 2 m/s 612 mmHg 69%
    17:00 -2°C° 0 mm 2 m/s 611 mmHg 76%
    18:00 -4°C° 0 mm 2 m/s 610 mmHg 84%
    19:00 -5°C° 0 mm 2 m/s 610 mmHg 85%
    20:00 -5°C° 0 mm 2 m/s 610 mmHg 86%
    21:00 -6°C° 0 mm 2 m/s 611 mmHg 87%
    22:00 -6°C° 0 mm 2 m/s 610 mmHg 85%
    23:00 -7°C° 0 mm 2 m/s 610 mmHg 82%

    Depois de amanhã, 26 Fevereiro, Segunda-feira

    Tempo Temperatura Precipitação Vento Pressão Humidade
    00:00 -7°C° 0 mm 2 m/s 610 mmHg 80%
    01:00 -7°C° 0 mm 2 m/s 610 mmHg 79%
    02:00 -7°C° 0 mm 2 m/s 610 mmHg 79%
    03:00 -8°C° 0 mm 2 m/s 610 mmHg 78%
    04:00 -8°C° 0 mm 2 m/s 610 mmHg 78%
    05:00 -8°C° 0 mm 2 m/s 609 mmHg 78%
    06:00 -9°C° 0 mm 2 m/s 609 mmHg 78%
    07:00 -7°C° 0 mm 2 m/s 610 mmHg 73%
    08:00 -6°C° 0 mm 2 m/s 611 mmHg 69%
    09:00 -4°C° 0 mm 2 m/s 611 mmHg 64%
    10:00 -3°C° 0 mm 2 m/s 612 mmHg 60%
    11:00 -2°C° 0 mm 2 m/s 612 mmHg 56%
    12:00 -1°C° 0 mm 2 m/s 612 mmHg 52%
    13:00 -2°C° 0 mm 2 m/s 611 mmHg 55%
    14:00 -2°C° 0 mm 2 m/s 611 mmHg 57%
    15:00 -3°C° 0 mm 2 m/s 610 mmHg 59%
    16:00 -5°C° 0,1 mm 2 m/s 610 mmHg 64%
    17:00 -6°C° 0,1 mm 2 m/s 609 mmHg 70%
    18:00 -8°C° 0,1 mm 2 m/s 609 mmHg 75%
    19:00 -7°C° 0,2 mm 1 m/s 609 mmHg 74%
    20:00 -8°C° 0,2 mm 1 m/s 609 mmHg 73%
    21:00 -8°C° 0,2 mm 1 m/s 609 mmHg 72%
    22:00 -9°C° 0,2 mm 1 m/s 609 mmHg 72%
    23:00 -9°C° 0,2 mm 1 m/s 608 mmHg 72%

    27 Fevereiro, Terça-feira

    Tempo Temperatura Precipitação Vento Pressão Humidade
    00:00 -9°C° 0,2 mm 1 m/s 608 mmHg 73%
    01:00 -9°C° 0,1 mm 1 m/s 608 mmHg 73%
    02:00 -9°C° 0,1 mm 1 m/s 608 mmHg 73%
    03:00 -9°C° 0,1 mm 0 m/s 607 mmHg 74%
    04:00 -9°C° 0,1 mm 0 m/s 607 mmHg 74%
    05:00 -10°C° 0,1 mm 0 m/s 607 mmHg 74%
    06:00 -10°C° 0,1 mm 0 m/s 607 mmHg 74%
    07:00 -9°C° 0,1 mm 1 m/s 608 mmHg 71%
    08:00 -8°C° 0,1 mm 1 m/s 608 mmHg 67%
    09:00 -7°C° 0,1 mm 1 m/s 609 mmHg 64%
    10:00 -6°C° 0,1 mm 1 m/s 609 mmHg 62%
    11:00 -4°C° 0,1 mm 1 m/s 609 mmHg 60%
    12:00 -5°C° 0,1 mm 2 m/s 609 mmHg 58%
    13:00 -6°C° 0,2 mm 2 m/s 609 mmHg 60%
    14:00 -4°C° 0,2 mm 1 m/s 609 mmHg 62%
    15:00 -4°C° 0,2 mm 1 m/s 608 mmHg 64%
    16:00 -6°C° 0,2 mm 1 m/s 608 mmHg 67%
    17:00 -7°C° 0,2 mm 1 m/s 608 mmHg 70%
    18:00 -8°C° 0,2 mm 1 m/s 608 mmHg 73%
    19:00 -8°C° 0,1 mm 1 m/s 608 mmHg 74%
    20:00 -8°C° 0,1 mm 1 m/s 608 mmHg 74%
    21:00 -8°C° 0,1 mm 1 m/s 608 mmHg 75%
    22:00 -8°C° 0,1 mm 1 m/s 608 mmHg 76%
    23:00 -8°C° 0,1 mm 1 m/s 608 mmHg 78%

    28 Fevereiro, Quarta-feira

    Tempo Temperatura Precipitação Vento Pressão Humidade
    00:00 -9°C° 0,1 mm 2 m/s 608 mmHg 79%
    01:00 -9°C° 0 mm 2 m/s 608 mmHg 80%
    02:00 -9°C° 0 mm 2 m/s 608 mmHg 80%
    03:00 -9°C° 0 mm 2 m/s 608 mmHg 81%
    04:00 -9°C° 0 mm 2 m/s 607 mmHg 82%
    05:00 -8°C° 0 mm 2 m/s 607 mmHg 83%
    06:00 -8°C° 0 mm 2 m/s 607 mmHg 83%
    07:00 -7°C° 0,1 mm 2 m/s 607 mmHg 82%
    08:00 -7°C° 0,1 mm 3 m/s 607 mmHg 81%
    09:00 -6°C° 0,1 mm 3 m/s 607 mmHg 79%
    10:00 -5°C° 0,5 mm 4 m/s 607 mmHg 80%
    11:00 -4°C° 0,5 mm 4 m/s 607 mmHg 80%
    12:00 -4°C° 0,5 mm 4 m/s 607 mmHg 80%
    13:00 -3°C° 0,6 mm 4 m/s 606 mmHg 81%
    14:00 -2°C° 0,6 mm 4 m/s 606 mmHg 81%
    15:00 -1°C° 0,6 mm 4 m/s 605 mmHg 81%
    16:00 -2°C° 0,6 mm 4 m/s 605 mmHg 84%
    17:00 -2°C° 0,6 mm 4 m/s 604 mmHg 87%
    18:00 -3°C° 0,6 mm 4 m/s 604 mmHg 90%
    19:00 -2°C° 0,6 mm 3 m/s 604 mmHg 91%
    20:00 -2°C° 0,6 mm 3 m/s 604 mmHg 91%
    21:00 -1°C° 0,6 mm 3 m/s 604 mmHg 91%
    22:00 -1°C° 0,6 mm 3 m/s 604 mmHg 92%
    23:00 -1°C° 0,6 mm 3 m/s 604 mmHg 92%

    1 Março, Quinta-feira

    Tempo Temperatura Precipitação Vento Pressão Humidade
    00:00 -1°C° 0,6 mm 3 m/s 604 mmHg 92%
    01:00 -1°C° 0,6 mm 3 m/s 603 mmHg 92%
    02:00 -1°C° 0,6 mm 3 m/s 603 mmHg 92%
    03:00 -1°C° 0,6 mm 3 m/s 603 mmHg 92%
    04:00 -1°C° 0,1 mm 3 m/s 603 mmHg 92%
    05:00 -1°C° 0,1 mm 2 m/s 603 mmHg 93%
    06:00 -2°C° 0,1 mm 2 m/s 603 mmHg 93%
    07:00 +1°C° 0,1 mm 2 m/s 603 mmHg 91%
    08:00 +1°C° 0,1 mm 3 m/s 604 mmHg 89%
    09:00 +2°C° 0,1 mm 3 m/s 604 mmHg 86%
    10:00 +2°C° 0,6 mm 3 m/s 604 mmHg 85%
    11:00 +3°C° 0,6 mm 4 m/s 604 mmHg 84%
    12:00 +3°C° 0,6 mm 4 m/s 604 mmHg 83%
    13:00 +3°C° 0,7 mm 4 m/s 603 mmHg 83%
    14:00 +1°C° 0,7 mm 4 m/s 603 mmHg 84%
    15:00 +1°C° 0,7 mm 4 m/s 602 mmHg 84%
    16:00 +1°C° 0,3 mm 4 m/s 602 mmHg 86%
    17:00 +1°C° 0,3 mm 3 m/s 602 mmHg 89%
    18:00 0°C° 0,3 mm 3 m/s 601 mmHg 91%
    19:00 0°C° 0,4 mm 3 m/s 601 mmHg 91%
    20:00 0°C° 0,4 mm 3 m/s 601 mmHg 92%
    21:00 0°C° 0,4 mm 3 m/s 601 mmHg 92%
    22:00 0°C° 0,2 mm 3 m/s 601 mmHg 92%
    23:00 0°C° 0,2 mm 3 m/s 601 mmHg 92%
    Mostrar mais